Weather History for Toledo, OH

Change the Weather History Date:

Sunday, March 10, 2013

  Actual Average Record
Temperature  
Mean Temperature 50 °F 35 °F  
Max Temperature 65 °F 44 °F 72 °F (1925)
Min Temperature 35 °F 26 °F 6 °F (1972)
Degree Days  
Heating Degree Days 15 30  
Month to date heating degree days 330 314  
Since 1 July heating degree days 4786 4890  
Cooling Degree Days 0 0  
Month to date cooling degree days 0 0  
Year to date cooling degree days 0 0  
Moisture  
Dew Point 35 °F    
Average Humidity 59    
Maximum Humidity 82    
Minimum Humidity 36    
Precipitation  
Precipitation 0.03 in 0.07 in 2.02 in (2009)
Month to date precipitation 0.03 0.75  
Year to date precipitation 6.47 4.87  
Snow  
Snow 0.00 in 0.20 in - ()
Month to date snowfall T 2.4  
Since 1 July snowfall 22.5 32.9  
Snow Depth 0.00 in    
Sea Level Pressure  
Sea Level Pressure 29.93 in    
Wind  
Wind Speed 9 mph (South)    
Max Wind Speed 21 mph    
Max Gust Speed 29 mph    
Visibility 10 miles    
Events Rain    
T = Trace of Precipitation, MM = Missing Value Source: NWS Daily Summary

Daily Weather History Graph

Daily Weather History Graph

Search for Another Location

Airport:

Trip Planner

Search our weather history database for the weather conditions in past years. The results will help you decide how hot, cold, wet, or windy it might be!

Date:

Astronomy

Mar. 10, 2013 Rise Set
Actual Time 7:54 AM EDT 7:36 PM EDT
Civil Twilight 7:27 AM EDT 8:04 PM EDT
Nautical Twilight 6:55 AM EDT 8:36 PM EDT
Astronomical Twilight 6:22 AM EDT 9:08 PM EDT
Moon 6:54 AM EDT (3/10) 6:43 PM EDT (3/10)
Length of Visible Light 12h 36m
Length of Day
11h 41m
Waning Crescent, 2% of the Moon is Illuminated
Mar 10
Waning Crescent
Mar 11
New
Mar 19
First Quarter
Mar 27
Full
Apr 3
Last Quarter

Hourly Weather History & Observations

Time (EDT) Temp. Windchill Dew Point Humidity Pressure Visibility Wind Dir Wind Speed Gust Speed Precip Events Conditions
12:52 AM 37.0 °F 34.5 °F 30.9 °F 79% 30.02 in 10.0 mi East 3.5 mph - N/A   Clear
1:52 AM 37.0 °F 34.5 °F 30.9 °F 79% 30.02 in 10.0 mi East 3.5 mph - N/A   Clear
3:52 AM 39.9 °F 37.8 °F 30.9 °F 70% 29.99 in 10.0 mi ESE 3.5 mph - N/A   Clear
4:52 AM 37.0 °F - 32.0 °F 82% 29.97 in 10.0 mi Calm Calm - N/A   Overcast
5:52 AM 43.0 °F 40.3 °F 32.0 °F 65% 29.97 in 10.0 mi SSE 4.6 mph - N/A   Overcast
6:52 AM 45.0 °F 41.2 °F 32.0 °F 60% 29.98 in 10.0 mi South 6.9 mph - 0.00 in   Overcast
7:52 AM 46.4 °F 43.5 °F 32.0 °F 57% 29.97 in 10.0 mi South 5.8 mph - N/A   Mostly Cloudy
8:52 AM 48.0 °F - 33.1 °F 56% 29.99 in 10.0 mi South 10.4 mph 19.6 mph N/A   Mostly Cloudy
9:52 AM 51.1 °F - 33.1 °F 50% 29.98 in 10.0 mi South 11.5 mph - N/A   Mostly Cloudy
10:52 AM 55.9 °F - 34.0 °F 44% 29.96 in 10.0 mi South 11.5 mph 23.0 mph N/A   Clear
11:52 AM 55.4 °F - 35.6 °F 47% 29.95 in 10.0 mi South 11.5 mph 23.0 mph N/A   Partly Cloudy
12:52 PM 60.1 °F - 36.0 °F 41% 29.96 in 10.0 mi SSW 17.3 mph 25.3 mph N/A   Clear
1:52 PM 61.0 °F - 36.0 °F 39% 29.93 in 10.0 mi SSW 20.7 mph 27.6 mph N/A   Clear
2:52 PM 63.0 °F - 39.9 °F 43% 29.91 in 10.0 mi SSW 20.7 mph 25.3 mph N/A   Scattered Clouds
3:52 PM 64.0 °F - 39.0 °F 40% 29.91 in 10.0 mi SW 16.1 mph 23.0 mph N/A   Mostly Cloudy
4:52 PM 62.1 °F - 37.0 °F 39% 29.88 in 10.0 mi South 12.7 mph 20.7 mph N/A   Clear
5:52 PM 62.1 °F - 36.0 °F 38% 29.88 in 10.0 mi South 13.8 mph - N/A   Clear
6:52 PM 61.0 °F - 37.9 °F 42% 29.87 in 10.0 mi SSE 6.9 mph - N/A   Clear
7:52 PM 57.9 °F - 39.0 °F 49% 29.85 in 10.0 mi SSE 6.9 mph - N/A   Clear
8:52 PM 57.0 °F - 37.0 °F 47% 29.85 in 10.0 mi Variable 4.6 mph - N/A   Clear
9:52 PM 57.0 °F - 36.0 °F 45% 29.83 in 10.0 mi SE 3.5 mph - N/A   Scattered Clouds
10:52 PM 57.0 °F - 36.0 °F 45% 29.81 in 10.0 mi Variable 5.8 mph - N/A   Partly Cloudy
11:52 PM 55.0 °F - 39.9 °F 57% 29.83 in 8.0 mi South 8.1 mph - 0.01 in Rain Light Rain
12:52 AM 55.9 °F - 42.1 °F 60% 29.81 in 10.0 mi SSW 8.1 mph - 0.02 in Rain Light Rain